Falfurrias, TX

1:15 PM CST on December 10, 2016 (GMT -0600)
Falfurrias

Weather History for KBKS - August, 2014

Change the Weather History Date:

Thursday, August 21, 2014

  Actual Average (KNQI) Record (KNQI)
Temperature  
Mean Temperature 94 °F -  
Max Temperature 107 °F 93 °F 102 °F (1997)
Min Temperature 83 °F 73 °F 72 °F (2012)
Cooling Degree Days 30    
Growing Degree Days 44 (Base 50)    
Moisture  
Dew Point 77 °F    
Average Humidity 58    
Maximum Humidity 70    
Minimum Humidity 43    
Precipitation  
Precipitation 0.00 in - - ()
Sea Level Pressure  
Sea Level Pressure 29.98 in    
Wind  
Wind Speed 13 mph (SSE)    
Max Wind Speed 22 mph    
Max Gust Speed 31 mph    
Visibility 9 miles    
Events      
Averages and records for this station are not official NWS values.
T = Trace of Precipitation, MM = Missing Value Source: NWS Daily Summary

Daily Weather History Graph

Daily Weather History Graph

Search for Another Location

Airport or City:

Trip Planner

Search our weather history database for the weather conditions in past years. The results will help you decide how hot, cold, wet, or windy it might be!

Date:

Astronomy

Aug. 21, 2014 Rise Set
Actual Time 7:06 AM CDT 8:04 PM CDT
Civil Twilight 6:42 AM CDT 8:28 PM CDT
Nautical Twilight 6:13 AM CDT 8:56 PM CDT
Astronomical Twilight 5:44 AM CDT 9:25 PM CDT
Moon 3:46 AM CDT (8/21) 5:26 PM CDT (8/21)
Length of Visible Light 13h 45m
Length of Day
12h 57m
Waning Crescent, 13% of the Moon is Illuminated
Aug 21
Waning Crescent
Aug 25
New
Sep 2
First Quarter
Sep 8
Full
Sep 15
Last Quarter

Hourly Weather History & Observations

Time (CDT) Temp. Heat Index Dew Point Humidity Pressure Visibility Wind Dir Wind Speed Gust Speed Precip Events Conditions
12:15 AM 88.7 °F 96.7 °F 73.4 °F 60% 29.98 in 10.0 mi SE 10.4 mph - N/A   Scattered Clouds
12:35 AM 88.9 °F 97.6 °F 73.8 °F 61% 29.98 in 10.0 mi SE 13.8 mph 19.6 mph N/A   Mostly Cloudy
12:55 AM 88.7 °F 97.7 °F 73.9 °F 62% 29.98 in 10.0 mi SSE 10.4 mph - N/A   Mostly Cloudy
1:15 AM 88.7 °F 97.7 °F 74.1 °F 62% 29.97 in 10.0 mi SSE 8.1 mph 17.3 mph N/A   Mostly Cloudy
1:35 AM 88.3 °F 96.9 °F 73.9 °F 62% 29.97 in 10.0 mi SE 11.5 mph 16.1 mph N/A   Scattered Clouds
1:55 AM 88.3 °F 97.4 °F 74.3 °F 63% 29.97 in 10.0 mi SSE 10.4 mph - N/A   Mostly Cloudy
2:15 AM 88.2 °F 96.9 °F 74.3 °F 63% 29.97 in 10.0 mi SSE 10.4 mph - N/A   Mostly Cloudy
2:35 AM 88.0 °F 97.0 °F 74.3 °F 64% 29.97 in 10.0 mi SSE 11.5 mph - N/A   Mostly Cloudy
2:55 AM 87.8 °F 96.6 °F 74.3 °F 64% 29.96 in 10.0 mi SSE 9.2 mph - N/A   Mostly Cloudy
3:15 AM 87.3 °F 95.8 °F 74.1 °F 65% 29.96 in 10.0 mi SSE 12.7 mph 21.9 mph N/A   Scattered Clouds
3:35 AM 86.9 °F 95.0 °F 73.9 °F 65% 29.96 in 10.0 mi SSE 13.8 mph 18.4 mph N/A   Clear
3:55 AM 86.7 °F 95.0 °F 73.9 °F 66% 29.96 in 10.0 mi SSE 12.7 mph - N/A   Clear
4:15 AM 86.4 °F 94.2 °F 73.8 °F 66% 29.96 in 10.0 mi SSE 12.7 mph - N/A   Scattered Clouds
4:35 AM 86.0 °F 93.4 °F 73.6 °F 66% 29.96 in 7.0 mi SSE 12.7 mph - N/A   Scattered Clouds
4:55 AM 85.5 °F 92.6 °F 73.4 °F 67% 29.97 in 7.0 mi SSE 10.4 mph - N/A   Scattered Clouds
5:15 AM 85.1 °F 91.8 °F 73.0 °F 67% 29.97 in 7.0 mi SSE 9.2 mph - N/A   Clear
5:35 AM 84.9 °F 91.4 °F 72.9 °F 67% 29.97 in 7.0 mi SSE 8.1 mph - N/A   Clear
5:55 AM 84.2 °F 90.3 °F 72.7 °F 68% 29.97 in 7.0 mi SSE 6.9 mph - N/A   Scattered Clouds
6:15 AM 84.2 °F 90.3 °F 72.5 °F 68% 29.97 in 7.0 mi SSE 8.1 mph - N/A   Clear
6:35 AM 83.8 °F 89.8 °F 72.5 °F 69% 29.98 in 7.0 mi SE 6.9 mph - N/A   Clear
6:55 AM 83.5 °F 89.1 °F 72.5 °F 69% 29.98 in 7.0 mi SE 5.8 mph - N/A   Clear
7:15 AM 83.3 °F 89.0 °F 72.5 °F 70% 29.99 in 7.0 mi SE 5.8 mph - N/A   Clear
7:35 AM 83.3 °F 89.0 °F 72.5 °F 70% 30.00 in 5.0 mi SE 5.8 mph - N/A   Clear
7:55 AM 83.7 °F 89.7 °F 73.0 °F 70% 30.01 in 5.0 mi SE 6.9 mph - N/A   Clear
8:15 AM 84.4 °F 91.3 °F 73.8 °F 70% 30.01 in 5.0 mi SSE 10.4 mph - N/A   Clear
8:35 AM 85.5 °F 93.8 °F 74.8 °F 70% 30.02 in 7.0 mi SSE 10.4 mph - N/A   Clear
8:55 AM 87.1 °F 97.8 °F 76.1 °F 70% 30.02 in 7.0 mi SSE 13.8 mph 18.4 mph N/A   Clear
9:15 AM 89.1 °F 102.6 °F 77.9 °F 69% 30.03 in 7.0 mi SSE 13.8 mph 17.3 mph N/A   Scattered Clouds
9:35 AM 90.9 °F 107.1 °F 79.2 °F 68% 30.03 in 7.0 mi South 16.1 mph 24.2 mph N/A   Mostly Cloudy
9:55 AM 92.5 °F 111.3 °F 80.2 °F 67% 30.03 in 7.0 mi SSE 17.3 mph 23.0 mph N/A   Scattered Clouds
10:15 AM 93.2 °F 113.6 °F 80.6 °F 67% 30.03 in 10.0 mi SSE 20.7 mph 28.8 mph N/A   Scattered Clouds
10:35 AM 95.0 °F 117.6 °F 81.7 °F 65% 30.03 in 10.0 mi South 19.6 mph 24.2 mph N/A   Clear
10:55 AM 95.9 °F 120.7 °F 82.2 °F 65% 30.03 in 10.0 mi SSE 21.9 mph 29.9 mph N/A   Scattered Clouds
11:15 AM 96.8 °F 122.8 °F 82.6 °F 64% 30.03 in 10.0 mi South 17.3 mph 26.5 mph N/A   Clear
11:35 AM 98.6 °F 126.9 °F 83.3 °F 62% 30.02 in 10.0 mi South 18.4 mph 28.8 mph N/A   Clear
11:55 AM 99.3 °F 128.3 °F 83.5 °F 61% 30.02 in 10.0 mi SSE 17.3 mph 23.0 mph N/A   Scattered Clouds
12:15 PM 100.0 °F 129.6 °F 83.7 °F 60% 30.02 in 10.0 mi South 16.1 mph 25.3 mph N/A   Scattered Clouds
12:35 PM 101.5 °F 132.3 °F 84.4 °F 58% 30.02 in 10.0 mi South 20.7 mph 26.5 mph N/A   Scattered Clouds
12:55 PM 101.8 °F 132.3 °F 84.2 °F 57% 30.01 in 10.0 mi SSE 18.4 mph 28.8 mph N/A   Scattered Clouds
1:15 PM 102.6 °F 133.5 °F 84.0 °F 56% 30.00 in 10.0 mi SSE 18.4 mph 25.3 mph N/A   Scattered Clouds
1:35 PM 104.0 °F 136.0 °F 84.6 °F 54% 30.00 in 7.0 mi South 16.1 mph 27.6 mph N/A   Scattered Clouds
1:55 PM 104.0 °F 136.0 °F 84.2 °F 54% 30.00 in 10.0 mi South 16.1 mph 27.6 mph N/A   Scattered Clouds
2:15 PM 105.3 °F 137.6 °F 84.6 °F 52% 29.99 in 10.0 mi SSE 18.4 mph 25.3 mph N/A   Scattered Clouds
2:35 PM 105.3 °F 136.2 °F 83.8 °F 51% 29.98 in 10.0 mi SSE 16.1 mph 27.6 mph N/A   Scattered Clouds
2:55 PM 106.0 °F 137.2 °F 83.7 °F 50% 29.97 in 10.0 mi SSE 13.8 mph 31.1 mph N/A   Scattered Clouds
3:15 PM 106.9 °F 138.9 °F 83.8 °F 49% 29.97 in 10.0 mi SSE 18.4 mph 27.6 mph N/A   Mostly Cloudy
3:35 PM 105.8 °F 133.8 °F 82.6 °F 48% 29.96 in 10.0 mi SSE 18.4 mph 25.3 mph N/A   Scattered Clouds
3:55 PM 106.3 °F 134.2 °F 82.4 °F 47% 29.95 in 10.0 mi SSE 17.3 mph 26.5 mph N/A   Scattered Clouds
4:15 PM 106.5 °F 133.4 °F 81.9 °F 46% 29.94 in 10.0 mi SE 17.3 mph 23.0 mph N/A   Scattered Clouds
4:35 PM 106.0 °F 131.7 °F 81.3 °F 46% 29.94 in 10.0 mi SE 17.3 mph 25.3 mph N/A   Scattered Clouds
4:55 PM 105.8 °F 129.8 °F 80.8 °F 45% 29.93 in 10.0 mi SSE 15.0 mph 28.8 mph N/A   Clear
5:15 PM 106.9 °F 131.8 °F 80.8 °F 44% 29.93 in 10.0 mi SSE 19.6 mph 26.5 mph N/A   Scattered Clouds
5:35 PM 105.6 °F 128.0 °F 79.5 °F 44% 29.93 in 10.0 mi SE 15.0 mph 23.0 mph N/A   Scattered Clouds
5:55 PM 105.1 °F 126.4 °F 79.0 °F 44% 29.93 in 10.0 mi SSE 17.3 mph 24.2 mph N/A   Scattered Clouds
6:15 PM 104.5 °F 124.8 °F 78.4 °F 44% 29.94 in 10.0 mi SSE 20.7 mph 27.6 mph N/A   Scattered Clouds
6:35 PM 103.5 °F 121.7 °F 77.4 °F 44% 29.93 in 10.0 mi SSE 17.3 mph - N/A   Clear
6:55 PM 102.9 °F 119.2 °F 76.8 °F 43% 29.94 in 10.0 mi SSE 18.4 mph 24.2 mph N/A   Clear
7:15 PM 101.5 °F 116.4 °F 75.6 °F 44% 29.94 in 10.0 mi SSE 15.0 mph 24.2 mph N/A   Clear
7:35 PM 99.1 °F 110.5 °F 73.9 °F 44% 29.95 in 10.0 mi SE 16.1 mph 21.9 mph N/A   Clear
7:55 PM 96.8 °F 106.6 °F 73.0 °F 46% 29.96 in 10.0 mi ESE 16.1 mph 23.0 mph N/A   Clear
8:15 PM 95.4 °F 104.7 °F 72.7 °F 48% 29.96 in 10.0 mi SE 11.5 mph 23.0 mph N/A   Scattered Clouds
8:35 PM 94.3 °F 102.9 °F 72.5 °F 49% 29.97 in 10.0 mi SE 11.5 mph 19.6 mph N/A   Scattered Clouds
8:55 PM 92.7 °F 100.5 °F 72.0 °F 51% 29.98 in 10.0 mi ESE 12.7 mph 19.6 mph N/A   Scattered Clouds
9:15 PM 91.8 °F 99.1 °F 71.8 °F 52% 29.99 in 10.0 mi SE 11.5 mph 20.7 mph N/A   Clear
9:35 PM 91.0 °F 98.2 °F 71.8 °F 53% 30.00 in 10.0 mi SE 12.7 mph 19.6 mph N/A   Clear
9:55 PM 90.5 °F 97.5 °F 71.8 °F 54% 30.01 in 10.0 mi SE 10.4 mph 19.6 mph N/A   Clear
10:15 PM 89.8 °F 96.5 °F 71.8 °F 55% 30.01 in 10.0 mi SE 11.5 mph 18.4 mph N/A   Clear
10:35 PM 89.6 °F 96.6 °F 72.0 °F 56% 30.02 in 10.0 mi ESE 11.5 mph 18.4 mph N/A   Clear
10:55 PM 89.1 °F 96.0 °F 72.1 °F 57% 30.03 in 10.0 mi SE 13.8 mph 18.4 mph N/A   Clear
11:15 PM 88.7 °F 95.7 °F 72.3 °F 58% 30.03 in 10.0 mi SE 11.5 mph 17.3 mph N/A   Clear
11:35 PM 88.5 °F 95.8 °F 72.5 °F 59% 30.03 in 10.0 mi SE 13.8 mph 18.4 mph N/A   Clear
11:55 PM 88.2 °F 95.5 °F 72.5 °F 60% 30.04 in 10.0 mi SE 11.5 mph - N/A   Clear